This is the latest recevied weather packets stored in our database for station/object K0QJ. If no packets are shown the sender has not sent any weather packets the latest 10 day(s).
| Time | Temp. | Humidity | Pressure | Rain* | Wind** | Luminosity | Snow |
|---|---|---|---|---|---|---|---|
| 1777860664 | 21.11° C | 53% | 1006.4 hPa | 0 mm | - | 0 W/m² | - |
| 1777860362 | 21.11° C | 52% | 1006.5 hPa | 0 mm | - | 0 W/m² | - |
| 1777860057 | 21.11° C | 52% | 1006.3 hPa | 0 mm | - | 0 W/m² | - |
| 1777859754 | 21.11° C | 52% | 1006.5 hPa | 0 mm | - | 0 W/m² | - |
| 1777859450 | 21.11° C | 50% | 1006.4 hPa | 0 mm | - | 0 W/m² | - |
| 1777859147 | 21.11° C | 52% | 1006.7 hPa | 0 mm | - | 0 W/m² | - |
| 1777858844 | 21.67° C | 52% | 1006.4 hPa | 0 mm | - | 0 W/m² | - |
| 1777858541 | 21.67° C | 51% | 1006.6 hPa | 0 mm | - | 0 W/m² | - |
| 1777858238 | 21.67° C | 50% | 1006.4 hPa | 0 mm | - | 0 W/m² | - |
| 1777857936 | 22.22° C | 49% | 1006.2 hPa | 0 mm | - | 0 W/m² | - |
| 1777857633 | 22.22° C | 47% | 1006.4 hPa | 0 mm | - | 0 W/m² | - |
| 1777857330 | 22.78° C | 47% | 1006.5 hPa | 0 mm | - | 0 W/m² | - |
| 1777857026 | 22.78° C | 45% | 1006.5 hPa | 0 mm | - | 0 W/m² | - |
| 1777856722 | 23.33° C | 45% | 1006.3 hPa | 0 mm | - | 3 W/m² | - |
| 1777856418 | 23.33° C | 44% | 1006.4 hPa | 0 mm | - | 5 W/m² | - |
| 1777856115 | 23.89° C | 44% | 1006.5 hPa | 0 mm | - | 7 W/m² | - |
| 1777855812 | 23.89° C | 43% | 1006.3 hPa | 0 mm | - | 9 W/m² | - |
| 1777855510 | 24.44° C | 41% | 1006.5 hPa | 0 mm | - | 12 W/m² | - |
| 1777855207 | 24.44° C | 40% | 1006.3 hPa | 0 mm | - | 14 W/m² | - |
| 1777854903 | 25° C | 40% | 1006.5 hPa | 0 mm | - | 18 W/m² | - |
| 1777854600 | 25° C | 41% | 1006.4 hPa | 0 mm | - | 20 W/m² | - |
| 1777854297 | 25.56° C | 40% | 1006.5 hPa | 0 mm | - | 23 W/m² | - |
| 1777853994 | 25.56° C | 39% | 1006.4 hPa | 0 mm | - | 28 W/m² | - |
| 1777853691 | 25.56° C | 40% | 1006.8 hPa | 0 mm | - | 28 W/m² | - |
| 1777853388 | 25.56° C | 39% | 1006.6 hPa | 0 mm | - | 27 W/m² | - |
* Rain latest hour (hover to see other rain measurements)
** Current wind speed in m/s (hover to see current wind gust speed)